SES-2

Last updated on Thu Nov 21 2024 00:02:41 GMT+0000 (Coordinated Universal Time)

1 37809U 11049A 24324.99207880 -.00000194 00000+0 00000+0 0 9993 2 37809 0.0148 326.8193 0002854 281.1177 81.7195 1.00270036 48204
UTC large
Height (km)
Speed (km/s)
/
Latitude / Longitude
Inclination (degrees)
Orbital Period (minutes)
Azimuth
Elevation
Range (km)
Doppler Factor

Next 0 passes for location: London (51.5072 / 0.1276)

Sorry there are no passes over London.